Weather reports worldwide

Advertisment
Shap, United Kingdom (3225): temperature & dewpoint: 23.09.2020 01:00:00 - 29.09.2020 01:00:00 (BST)Shap, United Kingdom (3225): temperature -20cm & temperature -100cm: 23.09.2020 01:00:00 - 29.09.2020 01:00:00 (BST)Shap, United Kingdom (3225): wind speed & gusts: 23.09.2020 01:00:00 - 29.09.2020 01:00:00 (BST)Shap, United Kingdom (3225): wind direction: 23.09.2020 01:00:00 - 29.09.2020 01:00:00 (BST)Shap, United Kingdom (3225): reduced air pressure: 23.09.2020 01:00:00 - 29.09.2020 01:00:00 (BST)Shap, United Kingdom (3225): visibility: 23.09.2020 01:00:00 - 29.09.2020 01:00:00 (BST)Shap, United Kingdom (3225): sunshine duration: 23.09.2020 01:00:00 - 29.09.2020 01:00:00 (BST)Shap, United Kingdom (3225): precipitation: 23.09.2020 01:00:00 - 29.09.2020 01:00:00 (BST)
Date & Time tt [°C] td [°C] tt -20cm [°C] tt -100cm [°C] ff [km/h] ff [kn] fx [km/h] fx [kn] dd ppp [hPa] vv [km] sd [min] rr [mm]
29.09.2020 01:00:00 5,8 4,3 - - 2 1 - - N 1015,7 28 - 0,0
29.09.2020 00:00:00 7,9 7,0 - - 2 1 - - E 1015,3 35 0 0,0
28.09.2020 23:00:00 8,7 7,8 - - 2 1 - - WNW 1014,9 26 0 0,0
28.09.2020 22:00:00 10,3 8,7 - - 4 2 - - NNW 1014,4 30 0 0,0
28.09.2020 21:00:00 10,8 9,2 - - 5 3 - - WNW 1013,9 30 0 0,0
28.09.2020 20:00:00 10,8 9,4 - - 5 3 - - NW 1013,3 30 0 0,2
28.09.2020 19:00:00 11,1 10,4 - - 4 2 - - SSW 1012,5 19 0 0,0
28.09.2020 18:00:00 12,3 10,7 - - 5 3 - - NW 1011,5 16 0 0,2
28.09.2020 17:00:00 10,9 9,6 - - 16 9 - - S 1011,2 14 0 0,0
28.09.2020 16:00:00 11,3 9,7 - - 9 5 - - SW 1011,3 2,9 0 0,0
28.09.2020 15:00:00 11,0 9,8 - - 9 5 - - SW 1011,3 11 0 0,0
28.09.2020 14:00:00 11,7 9,7 - - 21 11 - - SW 1011,5 1,6 6 0,0
28.09.2020 13:00:00 11,3 9,1 - - 11 6 - - S 1011,7 8 0 0,0
28.09.2020 12:00:00 11,9 9,5 - - 11 6 - - SSW 1011,9 22 0 0,0
28.09.2020 11:00:00 9,4 7,4 - - 15 8 - - SSE 1012,2 21 0 0,0
28.09.2020 10:00:00 9,4 7,7 11,5 12,7 16 9 - - S 1012,1 22 0 0,0
28.09.2020 09:00:00 5,9 5,6 - - 2 1 - - SW 1012,5 20 0 0,0
28.09.2020 08:00:00 4,6 4,2 - - 2 1 - - W 1012,7 17 0 0,0
28.09.2020 07:00:00 2,5 2,1 - - 2 1 - - S 1012,8 14 0 0,0
28.09.2020 06:00:00 2,6 2,1 - - 4 2 - - N 1013,4 18 0 0,0
28.09.2020 05:00:00 1,6 0,3 - - 0 0 - - N 1013,8 15 0 0,0
28.09.2020 04:00:00 3,0 1,7 - - 2 1 - - WSW 1014,1 21 0 0,0
28.09.2020 03:00:00 4,7 3,3 - - 9 5 - - S 1014,4 22 0 0,0
28.09.2020 02:00:00 1,5 0,8 - - 4 2 - - SSW 1015,5 1,1 0 0,0
28.09.2020 01:00:00 1,3 0,4 - - 2 1 - - NW 1015,8 16 - 0,0
28.09.2020 00:00:00 2,0 1,1 - - 4 2 - - WSW 1015,9 18 0 0,0
27.09.2020 23:00:00 2,5 1,8 - - 5 3 - - SW 1016,1 5 0 0,0
27.09.2020 22:00:00 3,1 2,2 - - 2 1 - - SW 1016,2 10 0 0,0
27.09.2020 21:00:00 2,8 1,4 - - 2 1 - - S 1016,0 10 0 0,0
27.09.2020 20:00:00 4,3 3,0 - - 8 4 - - WSW 1016,0 5 0 0,0
27.09.2020 19:00:00 5,6 2,8 - - 2 1 - - W 1015,6 9 18 0,0
27.09.2020 18:00:00 10,7 3,6 - - 5 3 - - NW 1015,1 14 60 0,0
27.09.2020 17:00:00 11,8 3,5 - - 8 4 - - N 1014,8 29 60 0,0
27.09.2020 16:00:00 11,8 2,0 - - 8 4 - - NNW 1015,2 35 60 0,0
27.09.2020 15:00:00 11,7 3,1 - - 8 4 - - N 1015,8 30 60 0,0
27.09.2020 14:00:00 11,0 3,8 - - 9 5 - - NNE 1016,1 28 60 0,0
27.09.2020 13:00:00 10,0 3,7 - - 13 7 - - NNW 1016,4 23 60 0,0
27.09.2020 12:00:00 9,5 4,0 - - 13 7 - - N 1016,5 30 60 0,0
27.09.2020 11:00:00 8,3 3,7 - - 15 8 - - NNW 1017,2 25 60 0,0
27.09.2020 10:00:00 7,4 3,9 - - 16 9 - - NNW 1017,5 25 60 0,0
27.09.2020 09:00:00 6,3 3,4 - - 13 7 - - NNW 1017,6 22 60 0,0
27.09.2020 08:00:00 4,7 2,6 - - 15 8 - - NW 1017,5 23 18 0,0
27.09.2020 07:00:00 4,3 2,3 - - 16 9 - - NW 1017,7 21 0 0,0
27.09.2020 06:00:00 4,2 2,2 - - 15 8 - - NW 1017,8 21 0 0,0
27.09.2020 05:00:00 5,5 2,8 - - 15 8 - - NW 1018,1 22 0 0,0
27.09.2020 04:00:00 5,7 3,1 - - 13 7 - - NW 1018,6 22 0 0,0
27.09.2020 03:00:00 5,2 2,9 - - 18 10 - - NW 1018,7 22 0 0,0
27.09.2020 02:00:00 4,9 2,7 - - 15 8 - - NW 1018,6 22 0 0,0
27.09.2020 01:00:00 4,5 2,7 - - 9 5 - - NW 1019,0 20 - 0,0
27.09.2020 00:00:00 5,1 2,7 - - 11 6 - - NW 1019,0 21 0 0,0
26.09.2020 23:00:00 5,4 3,1 - - 13 7 - - NNW 1018,9 21 0 0,0
26.09.2020 22:00:00 6,0 3,4 - - 16 9 - - NNW 1018,6 21 0 0,0
26.09.2020 21:00:00 6,3 3,1 - - 9 5 - - NNW 1018,7 23 0 0,0
26.09.2020 20:00:00 7,8 4,3 - - 18 10 - - N 1018,1 22 0 0,0
26.09.2020 19:00:00 8,1 3,9 - - 22 12 - - N 1017,5 26 24 0,0
26.09.2020 18:00:00 9,6 3,9 - - 24 13 - - N 1017,4 28 24 0,0
26.09.2020 17:00:00 10,6 5,1 - - 28 15 - - N 1016,7 30 30 0,0
26.09.2020 16:00:00 10,3 5,6 - - 26 14 - - N 1016,4 29 6 0,0
26.09.2020 15:00:00 9,5 4,9 - - 21 11 46 25 N 1016,2 30 0 0,0
26.09.2020 14:00:00 9,0 4,8 - - 21 11 - - N 1016,2 30 0 0,0
26.09.2020 13:00:00 8,8 4,0 - - 26 14 - - NNW 1015,9 40 0 0,0
26.09.2020 12:00:00 9,1 4,9 - - 24 13 - - NNW 1015,5 50 36 0,0
26.09.2020 11:00:00 7,3 3,1 - - 21 11 - - NNW 1015,5 55 48 0,0
26.09.2020 10:00:00 6,7 2,8 - - 21 11 - - NNW 1015,1 50 60 0,0
26.09.2020 09:00:00 5,1 1,4 - - 22 12 - - NNW 1014,7 50 42 0,0
26.09.2020 08:00:00 3,2 0,4 - - 13 7 - - NNW 1014,6 45 6 0,0
26.09.2020 07:00:00 3,2 0,1 - - 13 7 - - NW 1014,2 50 0 0,0
26.09.2020 06:00:00 3,1 -0,2 - - 4 2 - - N 1014,1 50 0 0,0
26.09.2020 05:00:00 3,5 0,0 - - 16 9 - - NW 1013,5 50 0 0,0
26.09.2020 04:00:00 3,3 -0,5 - - 15 8 - - NW 1013,5 50 0 0,0
26.09.2020 03:00:00 2,8 0,0 - - 11 6 - - NW 1013,7 40 0 0,0
26.09.2020 02:00:00 2,9 0,4 - - 13 7 - - NW 1013,7 40 0 0,0
26.09.2020 01:00:00 3,3 1,0 - - 13 7 - - NNW 1013,5 40 - 0,0
26.09.2020 00:00:00 4,2 1,9 - - 9 5 - - NW 1013,5 40 0 0,0
25.09.2020 23:00:00 5,1 2,8 - - 11 6 - - NNW 1013,1 45 0 0,0
25.09.2020 22:00:00 6,4 4,3 - - 11 6 - - NNW 1012,9 50 0 0,0
25.09.2020 21:00:00 7,0 4,4 - - 15 8 - - NNW 1012,5 45 0 0,0
25.09.2020 20:00:00 7,5 4,6 - - 21 11 - - N 1012,0 55 0 0,0
25.09.2020 19:00:00 7,1 5,1 - - 9 5 - - NNW 1011,0 65 0 0,0
25.09.2020 18:00:00 8,2 6,0 - - 21 11 - - N 1009,8 60 24 0,8
25.09.2020 17:00:00 8,7 6,8 - - 18 10 - - NNW 1009,3 60 18 0,2
25.09.2020 16:00:00 9,8 6,3 - - 21 11 - - NNW 1008,9 65 18 0,2
25.09.2020 15:00:00 9,9 5,5 - - 22 12 - - NNW 1008,7 60 0 0,0
25.09.2020 14:00:00 9,7 4,9 - - 24 13 - - NNW 1008,3 60 6 0,0
25.09.2020 13:00:00 9,7 6,0 - - 26 14 50 27 NNW 1007,9 55 18 0,0
25.09.2020 12:00:00 9,7 5,5 - - 31 17 50 27 NNW 1007,1 55 48 0,0
25.09.2020 11:00:00 8,6 4,8 - - 31 17 52 28 NNW 1006,5 60 48 0,0
25.09.2020 10:00:00 7,7 4,6 12,7 13,4 29 16 50 27 NNW 1005,6 60 48 0,0
25.09.2020 09:00:00 6,0 3,7 - - 28 15 - - NNW 1005,1 55 48 0,0
25.09.2020 08:00:00 4,5 2,9 - - 18 10 - - NNW 1005,0 50 0 0,0
25.09.2020 07:00:00 5,1 3,2 - - 22 12 - - NNW 1004,4 50 0 0,0
25.09.2020 06:00:00 4,8 3,3 - - 21 11 - - NNW 1003,6 45 0 0,0
25.09.2020 05:00:00 4,9 3,8 - - 18 10 - - NNW 1003,0 40 0 0,0
25.09.2020 04:00:00 4,6 3,7 - - 15 8 - - NNW 1002,6 30 0 0,0
25.09.2020 03:00:00 4,2 3,3 - - 15 8 - - NNW 1002,1 35 0 0,0
25.09.2020 02:00:00 4,6 3,5 - - 13 7 - - NNW 1001,4 35 0 0,0
25.09.2020 01:00:00 6,3 4,5 - - 16 9 - - N 1000,6 40 - 0,0
25.09.2020 00:00:00 6,3 4,2 - - 13 7 - - N 999,9 55 0 0,0
24.09.2020 23:00:00 6,5 4,2 - - 21 11 - - NE 999,1 60 0 0,2
24.09.2020 22:00:00 6,2 4,6 - - 9 5 - - N 998,4 60 0 0,0
24.09.2020 21:00:00 6,3 5,3 - - 8 4 - - NNE 998,0 50 0 1,0
24.09.2020 20:00:00 6,3 5,5 - - 15 8 - - NE 996,9 3,6 0 0,6
24.09.2020 19:00:00 6,2 4,9 - - 8 4 - - NNW 996,0 40 0 0,2
24.09.2020 18:00:00 6,3 5,1 - - 5 3 - - ESE 995,1 9 0 1,2
24.09.2020 17:00:00 7,1 4,7 - - 18 10 - - SSE 994,7 11 0 0,0
24.09.2020 16:00:00 8,4 6,4 - - 16 9 - - E 993,9 40 0 0,0
24.09.2020 15:00:00 8,1 6,7 - - 16 9 - - E 993,4 35 0 0,4
24.09.2020 14:00:00 7,5 6,5 - - 13 7 - - ESE 993,2 4,4 0 1,2
24.09.2020 13:00:00 7,6 6,3 - - 18 10 - - E 992,8 10 0 0,0
24.09.2020 12:00:00 7,1 6,1 - - 18 10 - - E 992,9 9 0 0,4
24.09.2020 11:00:00 6,8 5,8 - - 8 4 - - SE 993,0 10 0 0,8
24.09.2020 10:00:00 5,8 4,8 13,2 13,5 5 3 - - SE 992,8 8 0 0,4
24.09.2020 09:00:00 4,4 4,3 - - 4 2 - - SSW 992,8 60 0 0,0
24.09.2020 08:00:00 3,0 2,9 - - 5 3 - - E 993,3 35 0 0,0
24.09.2020 07:00:00 1,7 1,4 - - 4 2 - - E 993,7 20 0 0,0
24.09.2020 06:00:00 1,4 1,1 - - 4 2 - - SSW 994,1 35 0 0,0
24.09.2020 05:00:00 1,1 0,6 - - 4 2 - - SW 994,6 23 0 0,0
24.09.2020 04:00:00 3,5 3,1 - - 8 4 - - SW 995,1 55 0 0,0
24.09.2020 03:00:00 2,6 1,9 - - 5 3 - - SSW 995,7 40 0 0,0
24.09.2020 02:00:00 3,9 3,7 - - 5 3 - - WSW 996,0 50 0 0,0
24.09.2020 01:00:00 3,7 3,0 - - 2 1 - - SSW 996,3 29 - 0,0
24.09.2020 00:00:00 5,9 5,3 - - 2 1 - - N 996,4 30 0 0,0
23.09.2020 23:00:00 6,7 6,1 - - 2 1 - - NNE 996,7 20 0 0,6
23.09.2020 22:00:00 6,9 6,2 - - 4 2 - - NW 997,2 29 0 0,4
23.09.2020 21:00:00 7,1 6,5 - - 8 4 - - NW 997,5 7 0 0,4
23.09.2020 20:00:00 7,3 6,6 - - 8 4 - - NNW 997,8 30 0 0,2
23.09.2020 19:00:00 7,7 7,1 - - 13 7 - - NNW 998,0 9 0 0,8
23.09.2020 18:00:00 8,2 7,7 - - 13 7 - - N 998,1 14 0 0,8
23.09.2020 17:00:00 8,6 7,7 - - 15 8 - - N 998,6 10 0 0,8
23.09.2020 16:00:00 9,2 8,1 - - 13 7 - - N 998,8 5 0 0,6
23.09.2020 15:00:00 9,3 8,5 - - 11 6 - - NNW 999,0 7 0 0,4
23.09.2020 14:00:00 9,4 8,6 - - 9 5 - - N 999,4 4,0 0 0,2
23.09.2020 13:00:00 9,5 8,9 - - 11 6 - - N 999,7 2,9 0 0,4
23.09.2020 12:00:00 9,3 8,3 - - 11 6 - - NNW 999,6 30 0 0,0
23.09.2020 11:00:00 9,1 8,7 - - 13 7 - - NNW 999,9 14 0 0,2
23.09.2020 10:00:00 8,5 8,1 13,7 13,5 9 5 - - N 1000,3 2,6 0 0,6
23.09.2020 09:00:00 8,4 7,9 - - 8 4 - - NNW 1000,1 5 0 0,4
23.09.2020 08:00:00 8,5 7,8 - - 11 6 - - NNW 1000,1 3,8 0 0,8
23.09.2020 07:00:00 8,7 8,0 - - 4 2 - - NW 999,7 45 0 0,0
23.09.2020 06:00:00 9,3 8,5 - - 5 3 - - N 999,9 4,1 0 0,4
23.09.2020 05:00:00 9,8 9,3 - - 9 5 - - NNW 999,9 4,8 0 0,6
23.09.2020 04:00:00 10,1 9,4 - - 8 4 - - NW 999,8 45 0 0,4
23.09.2020 03:00:00 10,2 9,4 - - 9 5 - - NNW 1000,2 6 0 1,2
23.09.2020 02:00:00 11,1 10,1 - - 9 5 - - NNE 1000,0 11 0 1,8
23.09.2020 01:00:00 13,2 11,8 - - 24 13 - - SW 999,2 5 - 0,0

tt = temperature
td = dewpoint
tt -20cm = temperature -20cm
tt -100cm = temperature -100cm
ff = wind speed
fx = gusts
dd = wind direction
ppp = reduced air pressure
vv = visibility
sd = sunshine duration
rr = precipitation

Next stations